This demonstration page uses our WeatherBlox Daily Observations layout. Learn more.

Hourly Observations for August 18, 2017

Temp ( °F °C ) Dew Point ( °F °C ) Humidity (%) Winds ( mph kmh ) Pressure ( in mb ) Visibility ( mi km ) Precip ( " mm )
12:15 am 00:15 Clear 68 20.1 58 14.4 70 70 S 3 6 29.85 1011 10 16.09344 0 0
12:35 am 00:35 Clear 69 20.4 58 14.6 69 69 N 5 7 29.88 1012 10 16.09344 0 0
12:55 am 00:55 Clear 68 19.8 58 14.5 72 72 W 3 6 29.88 1012 10 16.09344 0 0
1:15 am 01:15 Clear 66 18.7 59 14.9 79 79 NNW 7 11 29.91 1013 10 16.09344 0 0
1:35 am 01:35 Clear 65 18.2 59 15.1 82 82 NW 3 6 29.91 1013 10 16.09344 0 0
1:55 am 01:55 Clear 66 18.9 60 15.3 80 80 SW 6 9 29.91 1013 10 16.09344 0 0
2:15 am 02:15 Partly Cloudy 64 18 60 15.4 85 85 W 7 11 29.91 1013 10 16.09344 0 0
2:35 am 02:35 Clear 65 18.3 60 15.5 84 84 N 7 11 29.94 1014 10 16.09344 0 0
2:55 am 02:55 Partly Cloudy with Light Rain 66 19 57 14.1 73 73 NE 10 17 29.94 1014 10 16.09344 0 0
3:15 am 03:15 Mostly Cloudy 67 19.2 56 13.6 70 70 SE 14 22 29.91 1013 10 16.09344 0 0
3:35 am 03:35 Partly Cloudy 67 19.3 56 13.6 70 70 E 12 19 29.91 1013 10 16.09344 0 0
3:55 am 03:55 Clear 65 18.5 57 13.8 74 74 E 3 6 29.94 1014 10 16.09344 0 0
4:15 am 04:15 Clear 65 18.2 57 13.9 76 76 SSE 5 7 29.94 1014 10 16.09344 0 0
4:35 am 04:35 Clear 62 16.7 57 13.8 83 83 Calm 29.94 1014 10 16.09344 0 0
4:55 am 04:55 Clear 63 17.3 57 13.9 81 81 Calm 29.94 1014 10 16.09344 0 0
5:15 am 05:15 Clear 61 16 57 13.8 87 87 SSW 5 7 29.97 1015 10 16.09344 0 0
5:35 am 05:35 Clear 60 15.7 57 13.8 89 89 SSW 6 9 29.94 1014 10 16.09344 0 0
5:55 am 05:55 Clear 61 15.9 57 14 89 89 SSW 3 6 29.97 1015 10 16.09344 0 0
6:15 am 06:15 Clear 60 15.6 57 13.9 90 90 Calm 29.97 1015 10 16.09344 0 0
6:35 am 06:35 Clear 60 15.8 56 13.6 87 87 Calm 29.97 1015 10 16.09344 0 0
6:55 am 06:55 Sunny 60 15.7 56 13.5 87 87 SSW 7 11 29.97 1015 10 16.09344 0 0
7:15 am 07:15 Sunny 62 16.7 56 13.6 82 82 SSW 5 7 29.94 1014 10 16.09344 0 0
7:35 am 07:35 Sunny 60 15.8 57 13.9 89 89 N 6 9 29.97 1015 10 16.09344 0 0
7:55 am 07:55 Sunny 61 16.1 58 14.5 90 90 NNW 6 9 30 1016 10 16.09344 0 0
8:15 am 08:15 Sunny 63 17.2 59 15 87 87 NW 6 9 29.97 1015 10 16.09344 0 0
8:35 am 08:35 Sunny 64 17.8 59 15.2 85 85 W 3 6 29.97 1015 10 16.09344 0 0
8:55 am 08:55 Sunny 66 19 60 15.7 81 81 Calm 29.97 1015 10 16.09344 0 0
9:15 am 09:15 Sunny 68 20.2 61 16.2 78 78 W 3 6 29.94 1014 10 16.09344 0 0
9:35 am 09:35 Sunny 70 21 60 15.8 72 72 WNW 7 11 29.94 1014 10 16.09344 0 0
9:55 am 09:55 Sunny 71 21.8 62 16.4 72 72 W 5 7 29.94 1014 10 16.09344 0 0
10:15 am 10:15 Sunny 73 22.7 62 16.9 70 70 W 7 11 29.94 1014 10 16.09344 0 0
10:35 am 10:35 Sunny 74 23.4 63 17.2 68 68 W 7 11 29.94 1014 10 16.09344 0 0
10:55 am 10:55 Sunny 75 23.8 63 17.3 67 67 WNW 6 9 29.91 1013 10 16.09344 0 0
11:15 am 11:15 Sunny 74 23.5 62 16.5 65 65 NW 9 15 29.94 1014 10 16.09344 0 0
11:35 am 11:35 Sunny 76 24.6 63 17 63 63 WNW 10 17 29.91 1013 10 16.09344 0 0
11:55 am 11:55 Sunny 77 25 64 17.5 63 63 WNW 9 15 29.91 1013 10 16.09344 0 0
12:15 pm 12:15 Sunny 77 25 64 17.7 64 64 NW 8 13 29.91 1013 10 16.09344 0 0
12:35 pm 12:35 Sunny 79 25.9 64 17.8 61 61 NW 6 9 29.91 1013 10 16.09344 0 0
12:55 pm 12:55 Sunny 80 26.5 65 18.2 60 60 NW 6 9 29.91 1013 10 16.09344 0 0
1:15 pm 13:15 Sunny 81 27.2 65 18.5 59 59 WNW 5 7 29.91 1013 10 16.09344 0 0
1:35 pm 13:35 Sunny 82 27.8 65 18.6 57 57 WNW 6 9 29.88 1012 10 16.09344 0 0
1:55 pm 13:55 Sunny 83 28.1 64 17.5 53 53 WNW 6 9 29.85 1011 10 16.09344 0 0
2:15 pm 14:15 Sunny 83 28.6 64 17.6 51 51 WNW 5 7 29.85 1011 10 16.09344 0 0
2:35 pm 14:35 Sunny 84 29 63 17.2 49 49 NNE 3 6 29.85 1011 10 16.09344 0 0
2:55 pm 14:55 Sunny 85 29.6 57 13.8 38 38 N 3 6 29.85 1011 10 16.09344 0 0
3:15 pm 15:15 Sunny 85 29.7 52 11.3 32 32 Calm 29.85 1011 10 16.09344 0 0
3:35 pm 15:35 Sunny 86 30 56 13.3 36 36 WNW 3 6 29.85 1011 10 16.09344 0 0
3:55 pm 15:55 Sunny 86 30 55 12.9 35 35 WSW 3 6 29.85 1011 10 16.09344 0 0
4:15 pm 16:15 Sunny 86 30.1 54 12.2 33 33 Calm 29.85 1011 10 16.09344 0 0
4:35 pm 16:35 Sunny 86 30.2 52 11 30 30 Calm 29.85 1011 10 16.09344 0 0
4:55 pm 16:55 Sunny 86 30.2 56 13.1 35 35 SW 3 6 29.85 1011 10 16.09344 0 0
5:15 pm 17:15 Sunny 87 30.3 53 11.6 32 32 SW 3 6 29.8 1009 10 16.09344 0 0
5:35 pm 17:35 Sunny 87 30.6 56 13.5 35 35 Calm 29.8 1009 10 16.09344 0 0
5:55 pm 17:55 Sunny 86 30.1 59 14.9 40 40 SW 3 6 29.83 1010 10 16.09344 0 0
6:15 pm 18:15 Sunny 85 29.6 63 17.2 47 47 SW 5 7 29.83 1010 10 16.09344 0 0
6:35 pm 18:35 Sunny 84 29.1 61 15.9 45 45 SW 5 7 29.83 1010 10 16.09344 0 0
6:55 pm 18:55 Sunny 83 28.6 65 18.2 53 53 SW 5 7 29.83 1010 10 16.09344 0 0
7:15 pm 19:15 Sunny 83 28.1 66 18.7 57 57 SSW 3 6 29.83 1010 10 16.09344 0 0
7:35 pm 19:35 Sunny 83 28.1 66 18.8 57 57 S 3 6 29.83 1010 10 16.09344 0 0
7:55 pm 19:55 Sunny 80 26.9 67 19.2 63 63 S 5 7 29.83 1010 10 16.09344 0 0
8:15 pm 20:15 Sunny 77 24.8 66 19 70 70 S 7 11 29.85 1011 10 16.09344 0 0
8:35 pm 20:35 Clear 74 23.6 64 17.8 70 70 SSW 8 13 29.85 1011 10 16.09344 0 0
8:55 pm 20:55 Clear 73 22.8 64 17.6 73 73 SSW 7 11 29.91 1013 10 16.09344 0 0
9:15 pm 21:15 Clear 72 22.2 63 17.2 73 73 Calm 29.91 1013 10 16.09344 0 0
9:35 pm 21:35 Clear 71 21.4 63 17.4 78 78 E 7 11 29.91 1013 10 16.09344 0 0
9:55 pm 21:55 Clear 73 22.8 62 16.7 69 69 N 5 7 29.94 1014 10 16.09344 0 0
10:15 pm 22:15 Clear 71 21.5 62 16.9 75 75 Calm 29.94 1014 10 16.09344 0 0
10:35 pm 22:35 Clear 69 20.6 62 16.7 78 78 Calm 29.94 1014 10 16.09344 0 0
10:55 pm 22:55 Clear 68 20 62 16.4 80 80 Calm 29.97 1015 10 16.09344 0 0
11:15 pm 23:15 Clear 68 20.1 61 16.3 79 79 Calm 29.97 1015 10 16.09344 0 0
11:35 pm 23:35 Clear 65 18.4 62 16.4 88 88 N 5 7 29.97 1015 10 16.09344 0 0
11:55 pm 23:55 Clear 65 18.5 61 16 85 85 NNE 7 11 29.97 1015 10 16.09344 0 0

Powered by AerisWeather